INTELSAT 31 (IS-31) (41581 NORAD) Tracking and Keplerian Element Data

This shows tracking and keplerian element data for the satellite.

Feedback or suggestion? Click here.




ElementValue
Catalog41581
NameINTELSAT 31 (IS-31)
Epoch Orbit921
Epoch Day349.03169254
Epoch Year2018
RAAN265.4194
Inclination0.0283
Eccentricity0.0002808
Argument of Perigee302.3195
Mean Anonmoly152.2601
Mean Motion1.00273317
Decay Rate-1.39E-06
L11 41581U 16035A 18349.03169254 -.00000139 00000-0 00000+0 0 9992
L22 41581 0.0283 265.4194 0002808 302.3195 152.2601 1.00273317 9219

Live tracking and technical data element details for INTELSAT 31 (IS-31) (NORAD 41581). INTELSAT 31 (IS-31) can be tracked NOW for your location showing map with azimuth and elevation plus other details from your city location.

Track the satellite on the map from your city or location and see movement details for azimuth, elevation, latitude, longitude, range, height, and movement on the map or in text.







IsCatalogInMostPopularTable: catalog: 41581, numindb: 112
Update: records affected: 1



GetName: 41581 INTELSAT 31 (IS-31)

Hit Count: updated at: Sun, 16 Dec 2018 10:50:33 GMT